Measurements were made at the meteorological tower in Juelich (50.90 N / 6.40 E) at an altitude of 100 m,
"Instrument: Fast Greenhouse Gas Analyzer (FGGA), Los Gatos Inc.",
Responsible PI: Dr. Marc von Hobe; Forschungszentrum Juelich GmbH; IEK-7; email: m.von.hobe@fz-juelich.de,
NaN or negative numbers are fill values (i.e. no valid measurements were made at that time),
Uncertainties are given as the 1-sigma standard deviation over each 10 minute intervals. In each interval ~600 individual measurements are carried out so that the standard error of the mean is approximately sigma/sqrt(600).,
time_utc,CO2_ppm,stdev_CO2_ppm,CH4_ppm,stdev_CH4_ppm,H2O_ppm,stdev_H2O_ppm
"2015-11-01 00:05:00 000",424.671,0.791668,2.04544,0.00488757,8223.70,199.961
"2015-11-01 00:15:00 000",425.353,0.807011,2.04493,0.00498151,8183.58,196.954
"2015-11-01 00:25:00 000",425.402,0.788410,2.04616,0.00519812,8144.86,213.055
"2015-11-01 00:35:00 000",425.376,0.811588,2.04541,0.00542321,8104.75,202.003
"2015-11-01 00:45:00 000",425.050,0.784954,2.04175,0.00524482,8106.10,206.604
"2015-11-01 00:55:00 000",424.665,0.759782,2.04057,0.00510699,8153.12,194.107
"2015-11-01 01:05:00 000",424.921,0.790967,2.03797,0.00505223,8185.96,190.417
"2015-11-01 01:15:00 000",425.299,0.785183,2.04026,0.00532023,8122.22,195.121
"2015-11-01 01:25:00 000",425.339,0.811541,2.04063,0.00505925,8037.87,189.828
"2015-11-01 01:35:00 000",425.740,0.831851,2.04186,0.00484360,8008.98,186.749
"2015-11-01 01:45:00 000",425.350,0.820044,2.04026,0.00475074,8052.31,176.932
"2015-11-01 01:55:00 000",425.288,0.731245,2.04126,0.00464614,8047.70,173.321
"2015-11-01 02:05:00 000",425.454,0.775919,2.04319,0.00451313,8044.70,163.084
"2015-11-01 02:15:00 000",425.777,0.755686,2.04701,0.00449821,7980.75,165.720
"2015-11-01 02:25:00 000",426.356,0.809482,2.05166,0.00508639,7880.40,164.729
"2015-11-01 02:35:00 000",426.555,0.798825,2.05489,0.00429208,7743.63,168.904
"2015-11-01 02:45:00 000",429.011,1.90591,2.05741,0.00583110,7494.68,153.530
"2015-11-01 02:55:00 000",432.731,1.10463,2.06891,0.00580606,7755.01,105.783
"2015-11-01 03:05:00 000",432.903,0.874534,2.08097,0.0101279,7749.45,91.5159
"2015-11-01 03:15:00 000",432.925,0.835135,2.09114,0.00452669,7830.44,85.6828
"2015-11-01 03:25:00 000",432.583,0.764956,2.08258,0.00596538,7777.81,95.2302
"2015-11-01 03:35:00 000",432.003,0.949988,2.08161,0.00564485,7667.60,76.7193
"2015-11-01 03:45:00 000",434.097,1.66190,2.09605,0.0109487,7592.52,79.9243
"2015-11-01 03:55:00 000",435.643,1.02874,2.10945,0.00518496,7587.91,78.7450
"2015-11-01 04:05:00 000",434.910,1.02104,2.10797,0.00524378,7673.63,91.6480
"2015-11-01 04:15:00 000",435.401,0.895075,2.11366,0.00640517,7666.46,80.5668
"2015-11-01 04:25:00 000",438.180,1.22305,2.15574,0.0173694,7650.14,90.9524
"2015-11-01 04:35:00 000",443.366,9.23371,2.18341,0.0269541,7788.56,106.055
"2015-11-01 04:45:00 000",435.806,3.88662,2.16766,0.0314331,7987.77,81.9764
"2015-11-01 04:55:00 000",431.435,0.987609,2.11942,0.00649417,8107.02,76.5130
"2015-11-01 05:05:00 000",436.001,2.47016,2.18306,0.0435050,8052.68,100.437
"2015-11-01 05:15:00 000",437.722,1.65784,2.19190,0.0246846,7838.87,104.643
"2015-11-01 05:25:00 000",435.147,1.91304,2.15721,0.0205970,7544.56,124.141
"2015-11-01 05:35:00 000",433.564,3.36310,2.14653,0.0215721,7355.21,90.3798
"2015-11-01 05:45:00 000",430.960,3.50755,2.13461,0.0222640,7165.28,75.3359
"2015-11-01 05:55:00 000",431.863,2.37693,2.13786,0.0177023,7202.69,93.0729
"2015-11-01 06:05:00 000",430.460,1.12628,2.12876,0.00580683,7317.67,78.4477
"2015-11-01 06:15:00 000",427.846,0.965630,2.11548,0.00419323,7293.73,78.5824
"2015-11-01 06:25:00 000",428.888,5.96023,2.14426,0.0528878,7417.53,126.986
"2015-11-01 06:35:00 000",423.656,1.33310,2.08656,0.00707947,7760.79,122.862
"2015-11-01 06:45:00 000",423.984,1.59901,2.08057,0.00656053,8053.50,92.5884
"2015-11-01 06:55:00 000",425.737,1.15020,2.08851,0.00705725,8160.52,79.8555
"2015-11-01 07:05:00 000",424.839,2.53610,2.08392,0.0173568,8358.82,144.747
"2015-11-01 07:15:00 000",425.083,3.57074,2.08242,0.0194726,8595.73,80.0837
"2015-11-01 07:25:00 000",429.645,1.52041,2.11445,0.00764598,8676.17,126.461
"2015-11-01 07:35:00 000",425.855,1.16638,2.09401,0.00757287,9004.91,104.898
"2015-11-01 07:45:00 000",423.375,1.55841,2.07815,0.00955492,9194.75,77.3079
"2015-11-01 07:55:00 000",423.840,2.85844,2.07773,0.0121781,9257.59,76.4035
"2015-11-01 08:05:00 000",426.582,2.08014,2.08523,0.0100848,9391.33,117.637
"2015-11-01 08:15:00 000",431.560,2.47075,2.09559,0.00964352,9433.75,85.3068
"2015-11-01 08:25:00 000",432.755,2.83255,2.09155,0.0160941,9513.70,85.4743
"2015-11-01 08:35:00 000",432.879,3.59609,2.09140,0.00844505,9797.07,149.850
"2015-11-01 08:45:00 000",431.313,7.38307,2.06952,0.00539756,10160.7,132.952
"2015-11-01 08:55:00 000",420.001,1.33801,2.06652,0.0105381,10528.4,120.901
"2015-11-01 09:05:00 000",417.934,2.55094,2.03633,0.0230084,10850.8,118.428
"2015-11-01 09:15:00 000",419.711,3.07390,2.04989,0.0116150,11086.6,84.7965
"2015-11-01 09:25:00 000",419.484,1.56407,2.03672,0.0108141,11097.6,76.4120
"2015-11-01 09:35:00 000",416.550,1.00410,2.00953,0.00740800,10632.1,364.621
"2015-11-01 09:45:00 000",417.278,1.58427,2.00666,0.0131106,8915.03,395.337
"2015-11-01 09:55:00 000",420.470,2.48780,2.03640,0.0219482,8618.90,111.270
"2015-11-01 10:05:00 000",420.512,3.56623,2.04303,0.0316593,8689.01,135.605
"2015-11-01 10:15:00 000",416.852,2.45923,2.01091,0.0191776,8434.92,154.031
"2015-11-01 10:25:00 000",419.266,3.31400,2.01840,0.0203237,8546.91,207.033
"2015-11-01 10:35:00 000",425.102,3.80524,2.04231,0.0164300,8897.56,198.608
"2015-11-01 10:45:00 000",422.871,1.10468,2.04879,0.0106473,9064.09,97.5025
"2015-11-01 10:55:00 000",421.757,1.08222,2.03407,0.00724015,9086.10,86.2546
"2015-11-01 11:05:00 000",423.902,1.49460,2.04683,0.0143287,9118.65,91.4196
"2015-11-01 11:15:00 000",426.179,1.03900,2.07946,0.00778604,9232.13,95.8450
"2015-11-01 11:25:00 000",427.497,1.29876,2.07927,0.00703313,9279.88,106.753
"2015-11-01 11:35:00 000",429.380,1.06626,2.08776,0.00515304,9301.44,108.025
"2015-11-01 11:45:00 000",429.620,0.912201,2.08953,0.00469895,9196.53,110.891
"2015-11-01 11:55:00 000",429.466,0.982427,2.08665,0.00673840,9163.07,100.989
"2015-11-01 12:05:00 000",428.676,1.20371,2.07629,0.00947397,9159.67,97.2746
"2015-11-01 12:15:00 000",426.378,1.56916,2.05592,0.0138599,9208.07,103.408
"2015-11-01 12:25:00 000",427.724,1.30527,2.06970,0.00845029,9323.74,100.763
"2015-11-01 12:35:00 000",427.865,1.39405,2.07138,0.00978494,9360.26,102.977
"2015-11-01 12:45:00 000",428.729,1.51768,2.08095,0.00890135,9472.67,109.428
"2015-11-01 12:55:00 000",429.763,1.37270,2.08331,0.00712127,9547.55,113.730
"2015-11-01 13:05:00 000",431.746,0.899495,2.08930,0.00501383,9598.03,100.996
"2015-11-01 13:15:00 000",431.298,0.910363,2.09680,0.00816579,9628.51,98.9593
"2015-11-01 13:25:00 000",430.511,1.03931,2.11449,0.00598782,9724.72,108.821
"2015-11-01 13:35:00 000",430.900,1.05144,2.11095,0.00504165,9758.98,89.3799
"2015-11-01 13:45:00 000",431.626,1.22275,2.11462,0.00493185,9797.32,97.4881
"2015-11-01 13:55:00 000",434.363,1.35752,2.12602,0.00535813,9877.17,100.270
"2015-11-01 14:05:00 000",436.505,1.11476,2.12924,0.00434952,9928.38,98.3745
"2015-11-01 14:15:00 000",437.770,0.884553,2.11920,0.00550069,9876.06,97.6461
"2015-11-01 14:25:00 000",438.033,0.996348,2.10846,0.00459080,9856.51,100.493
"2015-11-01 14:35:00 000",437.440,2.26227,2.10446,0.0120161,9888.40,116.713
"2015-11-01 14:45:00 000",434.480,1.14840,2.08693,0.00766281,9749.30,99.5975
"2015-11-01 14:55:00 000",436.871,1.16878,2.09825,0.00786511,9878.51,96.9240
"2015-11-01 15:05:00 000",439.178,1.36951,2.11225,0.00762699,9990.12,90.1539
"2015-11-01 15:15:00 000",440.633,1.33494,2.10346,0.00739949,10114.2,87.3649
"2015-11-01 15:25:00 000",440.856,1.33609,2.09008,0.00792158,10084.0,94.7385
"2015-11-01 15:35:00 000",439.715,1.19834,2.06592,0.0123748,9913.82,100.057
"2015-11-01 15:45:00 000",443.146,1.82506,2.07531,0.0103987,9932.33,99.8225
"2015-11-01 15:55:00 000",446.178,1.72233,2.08204,0.0124281,9996.54,85.2603
"2015-11-01 16:05:00 000",447.542,2.04835,2.07332,0.0113417,10026.2,71.1139
"2015-11-01 16:15:00 000",449.785,1.14569,2.07139,0.0110374,10014.4,71.5173
"2015-11-01 16:25:00 000",449.322,1.45112,2.06325,0.00493734,10078.4,67.3440
"2015-11-01 16:35:00 000",446.935,1.09290,2.09834,0.0215031,10108.2,76.0811
"2015-11-01 16:45:00 000",447.320,1.05172,2.11777,0.0153177,10125.9,68.9650
"2015-11-01 16:55:00 000",449.242,1.07495,2.11283,0.0270504,10100.6,69.6563
"2015-11-01 17:05:00 000",447.279,1.10811,2.09174,0.00894448,10067.3,65.6685
"2015-11-01 17:15:00 000",444.301,2.28383,2.11364,0.0166964,10081.9,66.4078
"2015-11-01 17:25:00 000",445.749,1.72230,2.12094,0.00795609,10095.8,68.1462
"2015-11-01 17:35:00 000",447.186,2.42567,2.13039,0.0149955,10159.4,70.7615
"2015-11-01 17:45:00 000",441.473,2.28616,2.10871,0.0231767,10064.4,78.4889
"2015-11-01 17:55:00 000",436.020,4.15497,2.07326,0.0235236,10023.7,74.3932
"2015-11-01 18:05:00 000",430.318,1.03904,2.04289,0.00556992,9957.77,68.1046
"2015-11-01 18:15:00 000",428.571,1.19668,2.03626,0.00406001,9817.48,102.997
"2015-11-01 18:25:00 000",427.481,0.909261,2.03564,0.00400600,9700.61,71.0096
"2015-11-01 18:35:00 000",428.714,0.978742,2.04236,0.00471366,9730.78,65.9115
"2015-11-01 18:45:00 000",425.923,2.53377,2.03587,0.00684573,9714.50,88.9380
"2015-11-01 18:55:00 000",426.717,2.56227,2.04145,0.0114599,9572.93,70.5146
"2015-11-01 19:05:00 000",427.549,2.86389,2.05130,0.0105364,9698.82,67.7027
"2015-11-01 19:15:00 000",425.044,1.42514,2.04590,0.00627543,9675.63,89.6658
"2015-11-01 19:25:00 000",424.912,1.57106,2.04367,0.00524196,9481.23,77.5431
"2015-11-01 19:35:00 000",424.454,1.90947,2.04293,0.00554672,9488.73,75.2774
"2015-11-01 19:45:00 000",421.863,1.70885,2.03748,0.00739696,9467.92,83.8521
"2015-11-01 19:55:00 000",421.744,1.04289,2.03391,0.00436222,9468.61,102.688
"2015-11-01 20:05:00 000",424.456,1.14292,2.04043,0.00439196,9491.13,122.770
"2015-11-01 20:15:00 000",424.027,1.71221,2.03924,0.00491957,9634.73,144.539
"2015-11-01 20:25:00 000",423.672,1.25086,2.04117,0.00491144,9402.23,144.513
"2015-11-01 20:35:00 000",425.054,1.35521,2.04721,0.00501517,9487.43,146.523
"2015-11-01 20:45:00 000",424.650,1.05279,2.04637,0.00500040,9580.86,164.979
"2015-11-01 20:55:00 000",423.923,0.888919,2.04295,0.00488740,9544.59,171.132
"2015-11-01 21:05:00 000",424.463,2.28218,2.04414,0.00581749,9458.78,179.938
"2015-11-01 21:15:00 000",427.684,1.20841,2.05342,0.00696145,9517.49,180.623
"2015-11-01 21:25:00 000",426.850,1.07546,2.05035,0.00584276,9563.47,187.001
"2015-11-01 21:35:00 000",424.605,1.65557,2.03958,0.00747663,9625.34,182.869
"2015-11-01 21:45:00 000",422.511,1.44436,2.03379,0.00660612,9510.72,200.635
"2015-11-01 21:55:00 000",422.822,1.60647,2.03237,0.00855203,9519.48,175.254
"2015-11-01 22:05:00 000",424.432,1.03219,2.03617,0.00580341,9552.19,171.233
"2015-11-01 22:15:00 000",425.034,0.958978,2.03972,0.00674833,9579.02,171.972
"2015-11-01 22:25:00 000",425.665,0.944526,2.04296,0.00620657,9540.85,153.174
"2015-11-01 22:35:00 000",425.068,0.927316,2.03867,0.00543835,9471.87,149.147
"2015-11-01 22:45:00 000",422.997,1.05412,2.02751,0.00598191,9346.41,161.872
"2015-11-01 22:55:00 000",423.630,1.27094,2.01789,0.00649648,9232.60,127.822
"2015-11-01 23:05:00 000",426.841,1.51603,2.01859,0.00581491,9258.04,115.619
"2015-11-01 23:15:00 000",426.788,1.47803,2.02065,0.00545376,9165.74,123.735
"2015-11-01 23:25:00 000",426.898,0.978335,2.01716,0.00868031,9103.98,121.982
"2015-11-01 23:35:00 000",426.745,1.89206,2.00556,0.00696173,8911.08,118.331
"2015-11-01 23:45:00 000",427.925,2.21876,2.01526,0.00785026,8922.99,96.9477
"2015-11-01 23:55:00 000",426.444,2.21552,2.01616,0.0122554,8808.70,104.945
"2015-11-02 00:05:00 000",426.877,1.29562,2.02574,0.00488264,8929.82,89.8809
"2015-11-02 00:15:00 000",428.649,1.81549,2.03407,0.00767674,8822.45,109.501
"2015-11-02 00:25:00 000",431.876,0.951101,2.05232,0.00530284,8792.85,120.703
"2015-11-02 00:35:00 000",432.749,0.949953,2.05973,0.00561318,8844.47,102.329
"2015-11-02 00:45:00 000",433.646,0.962570,2.06416,0.00499116,8778.30,104.231
"2015-11-02 00:55:00 000",435.015,1.00859,2.07239,0.00485638,8719.57,118.017
"2015-11-02 01:05:00 000",435.800,1.23887,2.07713,0.00616200,8625.67,149.906
"2015-11-02 01:15:00 000",437.051,1.16662,2.08625,0.00596594,8546.03,184.898
"2015-11-02 01:25:00 000",436.407,1.52553,2.08292,0.00725717,8572.27,186.398
"2015-11-02 01:35:00 000",437.743,2.03126,2.08518,0.00654869,8521.72,210.359
"2015-11-02 01:45:00 000",440.783,1.78323,2.09664,0.00818382,8450.76,229.268
"2015-11-02 01:55:00 000",445.130,0.939018,2.11306,0.00580055,8345.12,218.686
"2015-11-02 02:05:00 000",445.082,1.17899,2.11895,0.00576565,8338.17,222.755
"2015-11-02 02:15:00 000",444.694,1.06801,2.12320,0.00569718,8380.09,219.839
"2015-11-02 02:25:00 000",445.845,0.987748,2.12804,0.00598832,8290.79,226.506
"2015-11-02 02:35:00 000",445.433,0.969141,2.12576,0.00645846,8233.78,199.313
"2015-11-02 02:45:00 000",443.561,1.02017,2.11593,0.00558409,8234.05,209.081
"2015-11-02 02:55:00 000",443.122,1.07118,2.11966,0.00562326,8149.62,207.228
"2015-11-02 03:05:00 000",440.507,1.38843,2.10720,0.00838031,8211.87,208.628
"2015-11-02 03:15:00 000",437.813,1.60397,2.09320,0.00849010,8299.33,213.638
"2015-11-02 03:25:00 000",437.131,1.34790,2.09301,0.00861163,8287.76,217.208
"2015-11-02 03:35:00 000",438.556,1.02162,2.10260,0.00653475,8065.66,187.794
"2015-11-02 03:45:00 000",438.440,1.05047,2.11142,0.00834940,8060.46,196.563
"2015-11-02 03:55:00 000",437.005,1.09061,2.09748,0.00862618,8081.07,190.557
"2015-11-02 04:05:00 000",435.240,1.18270,2.08192,0.00752924,8203.32,203.378
"2015-11-02 04:15:00 000",438.090,1.36620,2.07993,0.00556510,7981.68,198.663
"2015-11-02 04:25:00 000",437.551,1.21039,2.07892,0.00515591,8005.52,188.872
"2015-11-02 04:35:00 000",440.145,2.35618,2.08244,0.00640678,7938.03,199.202
"2015-11-02 04:45:00 000",446.480,1.27213,2.09422,0.00552421,7814.32,185.524
"2015-11-02 04:55:00 000",447.728,1.00245,2.09744,0.00505180,7809.68,176.521
"2015-11-02 05:05:00 000",447.785,1.21731,2.09696,0.00506589,7793.88,179.918
"2015-11-02 05:15:00 000",450.552,1.05351,2.10194,0.00513052,7714.61,178.716
"2015-11-02 05:25:00 000",449.460,1.06755,2.10823,0.00587909,7657.44,180.073
"2015-11-02 05:35:00 000",449.222,1.26659,2.11704,0.00520711,7595.90,185.662
"2015-11-02 05:45:00 000",448.701,1.09315,2.12456,0.00645026,7529.39,183.499
"2015-11-02 05:55:00 000",448.386,1.01384,2.13975,0.00592445,7479.41,179.151
"2015-11-02 06:05:00 000",446.469,1.58982,2.14404,0.00720991,7556.03,185.041
"2015-11-02 06:15:00 000",444.047,1.31636,2.12967,0.00934934,7657.10,177.484
"2015-11-02 06:25:00 000",443.464,1.12613,2.12414,0.00747780,7584.36,179.121
"2015-11-02 06:35:00 000",443.561,1.08295,2.12559,0.00729538,7484.25,186.121
"2015-11-02 06:45:00 000",442.593,1.10807,2.11316,0.00792354,7444.00,183.028
"2015-11-02 06:55:00 000",441.382,0.926348,2.10354,0.00598700,7493.21,174.527
"2015-11-02 07:05:00 000",440.540,0.883559,2.09650,0.00649698,7526.41,180.947
"2015-11-02 07:15:00 000",439.388,1.09312,2.09041,0.00676157,7610.33,193.072
"2015-11-02 07:25:00 000",438.814,1.02738,2.08469,0.00567883,7642.07,183.392
"2015-11-02 07:35:00 000",438.719,0.973811,2.08313,0.00556577,7591.25,193.782
"2015-11-02 07:45:00 000",439.026,0.942232,2.08251,0.00589881,7513.22,187.671
"2015-11-02 07:55:00 000",438.624,0.942966,2.07720,0.00581704,7473.16,198.187
"2015-11-02 08:05:00 000",439.115,0.983810,2.07792,0.00533082,7460.44,202.378
"2015-11-02 08:15:00 000",440.631,0.961583,2.08098,0.00560729,7443.42,206.946
"2015-11-02 08:25:00 000",442.249,1.13162,2.08475,0.00565940,7367.35,209.777
"2015-11-02 08:35:00 000",444.354,0.907482,2.09120,0.00622498,7338.44,218.097
"2015-11-02 08:45:00 000",445.041,0.950216,2.10169,0.00549412,7483.34,222.295
"2015-11-02 08:55:00 000",444.344,0.998747,2.09759,0.00685772,7504.28,214.647
"2015-11-02 09:05:00 000",443.070,0.987199,2.09424,0.00529829,7557.68,232.776
"2015-11-02 09:15:00 000",442.148,1.02771,2.09599,0.00560236,7567.88,218.304
"2015-11-02 09:25:00 000",441.281,1.17753,2.09640,0.00584028,7655.05,235.098
"2015-11-02 09:35:00 000",440.297,0.926694,2.09515,0.00684328,7673.75,237.807
"2015-11-02 09:45:00 000",439.613,0.945413,2.08618,0.00629242,7727.21,223.013
"2015-11-02 09:55:00 000",438.109,1.23462,2.07965,0.00584470,7886.37,226.505
"2015-11-02 10:05:00 000",434.931,1.28394,2.06528,0.00805039,7915.41,206.573
"2015-11-02 10:15:00 000",432.441,1.43903,2.05567,0.00595667,8043.52,177.226
"2015-11-02 10:25:00 000",430.941,1.31321,2.05587,0.00495222,8139.70,158.608
"2015-11-02 10:35:00 000",428.645,1.36647,2.04875,0.00605444,8167.30,106.078
"2015-11-02 10:45:00 000",426.743,0.965151,2.04406,0.00581240,8147.11,103.174
"2015-11-02 10:55:00 000",425.236,1.10317,2.04063,0.00539572,8245.32,82.3140
"2015-11-02 11:05:00 000",423.476,0.887977,2.03086,0.00452764,8231.04,111.546
"2015-11-02 11:15:00 000",422.776,0.914738,2.02977,0.00384623,8294.80,91.7692
"2015-11-02 11:25:00 000",422.680,0.910052,2.03425,0.00384479,8433.43,87.0560
"2015-11-02 11:35:00 000",421.874,0.870508,2.03449,0.00403391,8518.38,84.3875
"2015-11-02 11:45:00 000",421.677,0.828943,2.04163,0.00457483,8601.52,99.6125
"2015-11-02 11:55:00 000",421.904,1.06756,2.04151,0.00654520,8658.30,97.4370
"2015-11-02 12:05:00 000",421.576,1.04565,2.03353,0.00499420,8691.13,101.841
"2015-11-02 12:15:00 000",419.808,1.00086,2.03132,0.00526666,8601.66,109.651
"2015-11-02 12:25:00 000",418.756,1.42526,2.03915,0.00637863,8704.23,111.137
"2015-11-02 12:35:00 000",416.105,1.31854,2.03718,0.00653255,8686.46,112.644
"2015-11-02 12:45:00 000",413.817,1.17153,2.03023,0.00833141,8623.66,99.3187
"2015-11-02 12:55:00 000",411.974,0.937639,2.01798,0.00675545,8559.38,94.7862
"2015-11-02 13:05:00 000",411.001,0.924499,2.01644,0.00582441,8524.66,105.702
"2015-11-02 13:15:00 000",410.091,0.843547,2.00693,0.00588585,8455.66,107.410
"2015-11-02 13:25:00 000",409.877,0.845785,2.00768,0.00504641,8411.98,105.172
"2015-11-02 13:35:00 000",410.164,0.946165,2.01824,0.00863634,8349.58,90.5035
"2015-11-02 13:45:00 000",411.248,0.871588,2.03094,0.00822045,8288.06,90.7766
"2015-11-02 13:55:00 000",411.255,0.863196,2.02633,0.00671500,8264.59,96.6936
"2015-11-02 14:05:00 000",410.843,0.872054,2.02132,0.00783024,8284.34,100.628
"2015-11-02 14:15:00 000",410.622,0.927324,2.01626,0.00766130,8199.11,100.608
"2015-11-02 14:25:00 000",410.935,0.906006,2.02069,0.00962707,8090.06,111.099
"2015-11-02 14:35:00 000",411.656,0.863321,2.03465,0.00590399,8062.47,109.376
"2015-11-02 14:45:00 000",412.239,0.927815,2.04056,0.00910685,8017.92,104.265
"2015-11-02 14:55:00 000",411.755,1.06473,2.02684,0.0143352,7963.52,93.9876
"2015-11-02 15:05:00 000",411.911,1.03620,2.03099,0.0107317,7949.90,85.0202
"2015-11-02 15:15:00 000",410.798,1.16676,2.01161,0.0169619,7857.03,81.6781
"2015-11-02 15:25:00 000",410.188,0.924020,1.99357,0.00899133,7849.01,74.6974
"2015-11-02 15:35:00 000",410.875,0.874634,1.99862,0.00781950,7866.00,82.2475
"2015-11-02 15:45:00 000",411.184,0.871018,1.99811,0.00719891,7934.60,74.1075
"2015-11-02 15:55:00 000",410.829,0.941921,1.99349,0.00745310,7985.28,76.0001
"2015-11-02 16:05:00 000",411.240,1.00907,1.99665,0.00833110,8003.17,70.6039
"2015-11-02 16:15:00 000",411.657,0.906070,1.99673,0.00853841,8073.37,78.5553
"2015-11-02 16:25:00 000",413.563,1.12848,2.03120,0.0131908,8032.36,70.8126
"2015-11-02 16:35:00 000",414.706,1.05573,2.04178,0.0117783,8033.87,73.3457
"2015-11-02 16:45:00 000",415.207,1.11525,2.05755,0.0223142,8066.86,75.7520
"2015-11-02 16:55:00 000",417.072,1.38921,2.10454,0.0427901,8141.02,85.0924
"2015-11-02 17:05:00 000",416.518,1.32860,2.07696,0.0340988,8049.51,80.9766
"2015-11-02 17:15:00 000",415.195,1.04242,2.03000,0.0157148,8071.21,79.5802
"2015-11-02 17:25:00 000",415.839,0.986648,2.02908,0.00827899,8091.88,78.5027
"2015-11-02 17:35:00 000",417.723,0.943807,2.03316,0.00984337,8189.38,81.8241
"2015-11-02 17:45:00 000",418.983,1.26561,2.06821,0.0155250,8156.53,90.8843
"2015-11-02 17:55:00 000",420.237,1.15660,2.06312,0.0147506,8207.85,106.093
"2015-11-02 18:05:00 000",423.785,1.44126,2.05131,0.00725171,8493.96,126.145
"2015-11-02 18:15:00 000",424.605,1.21434,2.05078,0.00608682,8618.42,84.7530
"2015-11-02 18:25:00 000",423.684,1.27075,2.05026,0.00544671,8697.18,80.7874
"2015-11-02 18:35:00 000",423.121,0.885506,2.05422,0.00420536,8759.93,86.4930
"2015-11-02 18:45:00 000",424.760,0.997915,2.05489,0.00433313,8760.06,80.6671
"2015-11-02 18:55:00 000",425.409,1.03611,2.06818,0.00574193,8765.88,82.1200
"2015-11-02 19:05:00 000",425.885,1.36302,2.06070,0.00798750,8855.03,101.985
"2015-11-02 19:15:00 000",424.672,2.10621,2.05698,0.00851121,8769.83,121.850
"2015-11-02 19:25:00 000",420.558,2.07274,2.06109,0.00744680,8616.05,126.383
"2015-11-02 19:35:00 000",418.578,1.12495,2.06936,0.00709925,8260.28,114.548
"2015-11-02 19:45:00 000",421.050,1.56002,2.07476,0.00525368,8080.08,84.3820
"2015-11-02 19:55:00 000",419.218,1.12061,2.06372,0.00879308,8005.82,103.731
"2015-11-02 20:05:00 000",417.759,1.27200,2.03951,0.00527600,7887.27,77.0915
"2015-11-02 20:15:00 000",414.998,0.987878,2.02850,0.00641715,7729.13,96.1083
"2015-11-02 20:25:00 000",414.191,0.919158,2.01761,0.00466119,7660.81,77.9288
"2015-11-02 20:35:00 000",414.307,1.68012,2.01836,0.00921249,7552.18,103.443
"2015-11-02 20:45:00 000",417.578,1.56335,2.03533,0.00829068,7661.54,84.1247
"2015-11-02 20:55:00 000",419.667,1.11838,2.04716,0.00563366,7735.18,87.7487
"2015-11-02 21:05:00 000",418.937,1.56746,2.03687,0.00863854,7769.13,88.0291
"2015-11-02 21:15:00 000",420.155,1.03311,2.04368,0.00574859,7741.03,87.8521
"2015-11-02 21:25:00 000",420.305,0.937803,2.04696,0.00457004,7749.55,86.5762
"2015-11-02 21:35:00 000",421.307,0.909354,2.04602,0.00516664,7717.94,87.4530
"2015-11-02 21:45:00 000",421.568,0.943870,2.04734,0.00422654,7815.41,109.805
"2015-11-02 21:55:00 000",422.963,0.973655,2.05308,0.00420618,7895.88,91.4187
"2015-11-02 22:05:00 000",423.710,0.961661,2.05562,0.00473634,7891.89,97.7436
"2015-11-02 22:15:00 000",423.812,1.08382,2.05865,0.00592355,7963.89,118.223
"2015-11-02 22:25:00 000",423.944,0.901169,2.04999,0.00425071,7953.87,111.551
"2015-11-02 22:35:00 000",424.089,0.934433,2.05182,0.00428879,7870.58,138.815
"2015-11-02 22:45:00 000",423.741,0.949601,2.04944,0.00464517,7747.64,143.034
"2015-11-02 22:55:00 000",424.413,0.939534,2.05045,0.00508638,7798.84,159.155
"2015-11-02 23:05:00 000",425.186,1.02455,2.05645,0.00503227,7623.33,174.674
"2015-11-02 23:15:00 000",424.782,0.920405,2.05279,0.00706681,7599.01,188.850
"2015-11-02 23:25:00 000",423.118,1.92790,2.04299,0.0102368,7501.70,202.323
"2015-11-02 23:35:00 000",421.668,1.75178,2.02875,0.0106357,7280.07,218.028
"2015-11-02 23:45:00 000",421.120,1.35147,2.02330,0.00851748,7212.34,218.631
"2015-11-02 23:55:00 000",420.624,1.41951,2.02430,0.00788257,7218.73,216.999
"2015-11-03 00:05:00 000",419.041,1.21517,2.01310,0.00741163,7206.43,239.316
"2015-11-03 00:15:00 000",419.581,1.25670,2.01553,0.00758361,7133.69,227.614
"2015-11-03 00:25:00 000",422.164,1.19791,2.02825,0.00717523,7243.84,218.822
"2015-11-03 00:35:00 000",424.145,1.52761,2.03840,0.00693820,7217.35,221.454
"2015-11-03 00:45:00 000",427.721,1.58667,2.05953,0.0108404,7171.82,230.714
"2015-11-03 00:55:00 000",425.051,1.87871,2.05289,0.0100293,7228.05,206.559
"2015-11-03 01:05:00 000",420.495,2.33985,2.02757,0.0124089,7156.72,229.406
"2015-11-03 01:15:00 000",420.680,1.83158,2.02315,0.00948453,7007.98,223.945
"2015-11-03 01:25:00 000",422.815,1.65980,2.03436,0.00903254,6885.88,225.605
"2015-11-03 01:35:00 000",418.568,1.72208,2.02567,0.0154818,6958.47,220.220
"2015-11-03 01:45:00 000",422.477,2.48183,2.03721,0.0137691,6792.39,224.820
"2015-11-03 01:55:00 000",422.253,1.45733,2.03746,0.0103544,6959.43,198.814
"2015-11-03 02:05:00 000",422.472,4.06853,2.03018,0.0226493,6756.56,231.465
"2015-11-03 02:15:00 000",429.843,1.13885,2.07127,0.00666034,6873.76,220.492